Location: Hobi?a Gr?di?te
(45.4833°N, 22.7833°E)
Time: 21:25:39
(UTC+00:00)

NOSS 3-4 (C) - Pass Details

Date: 28 January 2023
Orbit: 830 x 1382 km, 63.4° (Epoch: 19 March)

Event Time Altitude Azimuth Distance (km) Brightness Sun altitude
Rises 15:47:38 0° 322° (NW) 3,755 6.8 -3.8°
Reaches altitude 10° 15:50:08 10° 325° (NW) 2,875 6.1 -4.2°
Maximum altitude 15:56:59 66° 48° (NE) 1,258 3.9 -5.3°
Drops below altitude 10° 16:04:49 10° 130° (SE) 3,262 5.9 -6.6°
Sets 16:07:48 0° 133° (SE) 4,290 6.6 -7.1°
